EHI
0 0 0 0 0 0 0 0 0 0 0 0 0 0 0 0 0 0 0 0 0 0 0 0 0 0 0 0 0 0 0 0 0 0 0 0 0 0 0 0 0 0 0 0
0 0 0 0 0 0 0 0 0 0 0 0 0 0 0 0 0 0 0 0 0 0 0 0 0 0 0 0 0 0 0 0 0 0 0 0 0 0 0 0 0 0 0 0
0 0 0 0 0 0 0 0 0 0 0 0 0 0 0 0 0 0 0 0 0 0 0 0 0 0 0 0 0 0 0 0 0 0 0 0 0 0 0 0 0 0 0 0
0 0 0 0 0 0 0 0 0 0 0 0 0 0 0 0 0 0 0 0 0 0 0 0 0 0 0 0 0 0 0 0 0 0 0 0 0 0 0 0 0 0 0 0
0 0 0 0 0 0 0 0 0 0 0 0 0 0 0 0 0 0 0 0 0 0 0 0 0 0 0 0 0 0 0 0 0 0 0 0 0 0 0 0 0 0 0 0
0 0 0 0 0 0 0 0 0 0 0 0 0 0 0 0 0 0 0 0 0 0 0 0 0 0 0 0 0 0 0 0 0 0 0 0 0 0 0 0 0 0 0 0
0 0 0 0 0 0 0 0 0 0 0 0 0 0 0 0 0 0 0 0 0 0 0 0 0 0 0 0 0 0 0 0 0 0 0 0 0 0 0 0 0 0 0 0
0 0 0 0 0 0 0 0 0 0 0 0 0 0 0 0 0 0 0 0 0 0 0 0 0 0 0 0 0 0 0 0 0 0 0 0 0 0 0 0 0 0 0 0
0 0 0 0 0 0 0 0 0 0 0 0 0 0 0 0 0 0 0 0 0 0 0 0 0 0 0 0 0 0 0 0 0 0 0 0 0 0 0 0 0 0 0 0
0 0 0 0 0 0 0 0 0 0 0 0 0 0 0 0 0 0 0 0 0 0 0 0 0 0 0 0 0 0 0 0 0 0 0 0 0 0 0 0 0 0 0 0
0 0 0 0 0 0 0 0 0 0 0 0 0 0 0 0 0 0 0 0 0 0 0 0 0 0 0 0 0 0 0 0 0 0 0 0 0 0 0 0 0 0 0 0
0 0 0 0 0 0 0 0 0 0 0 0 0 0 0 0 0 0 0 0 0 0 0 0 0 0 0 0 0 0 0 0 0 0 0 0 0 0 0 0 0 0 0 0
0 0 0 0 0 0 0 0 0 0 0 0 0 0 0 0 0 0 0 0 0 0 0 0 0 0 0 0 0 0 0 0 0 0 0 0 0 0 0 0 0 0 0 0
0 0 0 0 0 0 0 0 0 0 0 0 0 0 0 0 0 0 0 0 0 0 0 0 0 0 0 0 0 0 0 0 0 0 0 0 0 0 0 0 0 0 0 0
0 0 0 0 0 0 0 0 0 0 0 0 0 0 0 0 0 0 0 0 0 0 0 0 0 0 0 0 0 0 0 0 0 0 0 0 0 0 0 0 0 0 0 0
0 0 0 0 0 0 0 0 0 0 0 0 0 0 0 0 0 0 0 0 0 0 0 0 0 0 0 0 0 0 0 0 0 0 0 0 0 0 0 0 0 0 0 0
0 0 0 0 0 0 0 0 0 0 0 0 0 0 0 0 0 0 0 0 0 0 0 0 0 0 0 0 0 0 0 0 0 0 0 0 0 0 0 0 0 0 0 0
0 0 0 0 0 0 0 0 0 0 0 0 0 0 0 0 0 0 0 0 0 0 0 0 0 0 0 0 0 0 0 0 0 0 0 0 0 0 0 0 0 0 0 0
0 0 0 0 0 0 0 0 0 0 0 0 0 0 0 0 0 0 0 0 0 0 0 0 0 0 0 0 0 0 0 0 0 0 0 0 0 0 0 0 0 0 0 0
0 0 0 0 0 0 0 0 0 0 0 0 0 0 0 0 0 0 0 0 0 0 0 0 0 0 0 0 0 0 0 0 0 0 0 0 0 0 0 0 0 0 0 0
0 0 0 0 0 0 0 0 0 0 0 0 0 0 0 0 0 0 0 0 0 0 0 0 0 0 0 0 0 0 0 0 0 0 0 0 0 0 0 0 0 0 0 0
0 0 0 0 0 0 0 0 0 0 0 0 0 0 0 0 0 0 0 0 0 0 0 0 0 0 0 0 0 0 0 0 0 0 0 0 0 0 0 0 0 0 0 0
0 0 0 0 0 0 0 0 0 0 0 0 0 0 0 0 0 0 0 0 0 0 0 0 0 0 0 0 0 0 0 0 0 0 0 0 0 0 0 0 0 0 0 0
0 0 0 0 0 0 0 0 0 0 0 0 0 0 0 0 0 0 0 0 0 0 0 0 0 0 0 0 0 0 0 0 0 0 0 0 0 0 0 0 0 0 0 0
0 0 0 0 0 0 0 0 0 0 0 0 0 0 0 0 0 0 0 0 0 0 0 0 0 0 0 0 0 0 0 0 0 0 0 0 0 0 0 0 0 0 0 0
0 0 0 0 0 0 0 0 0 0 0 0 0 0 0 0 0 0 0 0 0 0 0 0 0 0 0 0 0 0 0 0 0 0 0 0 0 0 0 0 0 0 0 0
0 0 0 0 0 0 0 0 0 0 0 0 0 0 0 0 0 0 0 0 0 0 0 0 0 0 0 0 0 0 0 0 0 0 0 0 0 0 0 0 0 0 0 0
Wind_Speed
6 5 3 5 5 6 6 7 8 7 7 9 7 6 5 4 4 4 4 4 4 4 3 3 4 4 4 4 4 3 4 5 6 6 6 6 6 7 7 7 8 7 8 8
3 2 3 4 6 5 5 4 5 3 7 6 3 3 4 5 6 6 6 6 5 5 4 4 4 4 4 5 4 3 4 6 6 6 6 7 7 7 7 8 8 7 8 9
3 4 2 4 5 4 4 4 7 7 7 3 4 7 7 8 7 8 7 6 6 6 5 5 5 4 5 5 4 4 5 6 6 6 7 8 8 8 8 8 7 8 8 8
1 2 3 9 4 4 3 4 5 5 4 6 6 4 4 6 8 8 7 7 6 5 5 4 4 4 4 4 4 5 6 7 7 7 8 8 8 8 8 7 7 8 9 9
4 2 5 8 3 5 5 4 5 6 5 3 3 3 3 6 8 8 8 7 6 5 4 4 5 4 4 4 5 5 6 7 7 7 8 8 9 9 8 7 8 8 8 9
4 4 5 9 4 4 4 5 6 7 7 6 7 3 7 7 8 8 7 5 5 4 3 4 5 3 3 5 5 6 7 7 8 7 8 9 9 9 7 7 8 8 9 8
4 4 9 8 3 6 4 10 6 10 9 10 10 10 6 4 7 7 6 6 5 4 4 5 4 2 4 5 6 7 7 7 8 7 8 8 8 7 8 7 8 8 9 8
4 3 9 3 8 10 11 4 5 9 10 12 11 6 4 5 6 6 6 5 5 4 5 4 3 3 5 6 7 6 6 7 8 8 7 7 7 8 7 7 7 8 7 8
8 8 7 5 8 6 4 4 6 9 9 11 9 8 7 6 7 7 7 6 4 5 5 5 4 4 6 6 5 6 6 7 8 8 7 7 7 8 7 6 5 6 6 6
4 7 6 6 6 5 6 7 6 8 8 10 10 9 8 7 7 7 6 6 5 5 5 5 5 5 6 6 5 5 7 8 7 7 8 7 6 5 6 6 6 6 6 6
4 7 7 6 5 6 5 4 4 5 7 10 10 8 8 8 8 7 6 5 5 6 6 7 5 5 5 5 4 5 7 7 7 6 7 7 7 6 6 6 6 6 6 6
7 7 4 8 6 3 5 7 8 8 6 6 8 9 8 8 7 6 6 5 5 6 6 6 5 6 5 4 4 5 6 6 6 6 6 6 7 7 7 8 10 10 10 9
7 5 5 8 6 4 6 7 7 8 9 7 6 7 7 6 5 5 5 6 7 7 7 6 5 6 5 4 4 5 6 6 6 6 6 6 6 6 8 8 8 8 8 9
6 4 4 4 5 4 4 4 3 3 3 3 4 4 4 4 4 6 7 8 7 6 6 6 5 6 5 3 4 5 6 7 6 5 5 6 6 6 6 6 8 7 6 7
7 3 2 4 6 5 3 2 3 1 1 1 3 4 5 6 7 7 6 5 4 5 6 5 6 7 4 3 4 5 5 5 5 5 5 5 5 6 6 6 6 7 6 6
7 8 9 10 10 8 7 5 2 1 1 2 2 4 6 6 5 5 4 4 5 6 7 6 7 6 3 3 4 4 5 8 8 5 5 5 5 5 5 6 6 6 6 5
10 11 10 10 10 8 7 5 4 3 2 1 3 4 4 4 4 5 6 6 7 7 6 6 6 5 3 3 4 4 4 6 9 6 5 5 5 5 5 5 6 6 6 6
6 5 6 6 6 7 8 8 7 6 3 3 2 1 3 5 7 8 6 4 4 5 6 7 6 4 4 4 4 4 4 4 4 5 5 5 5 5 5 5 6 7 6 6
8 8 8 9 8 7 7 7 6 5 4 3 2 3 5 6 6 6 4 4 6 8 7 6 7 6 5 5 4 3 4 4 5 4 4 6 6 5 5 5 6 6 6 6
9 9 9 9 9 7 7 7 6 5 5 4 3 4 5 6 5 5 4 6 8 7 5 5 5 5 5 4 4 3 3 4 4 4 4 4 5 5 5 6 6 6 6 5
7 8 8 8 7 7 6 6 6 6 6 5 4 5 7 7 5 4 4 7 8 6 5 6 5 4 4 3 4 3 3 3 4 4 4 5 5 5 5 5 6 5 6 5
5 6 7 7 7 7 6 5 4 5 6 6 6 6 6 7 6 5 7 7 6 5 5 4 4 5 5 4 2 2 3 3 3 3 3 4 4 5 5 5 5 5 5 5
5 5 6 6 6 6 7 5 5 5 5 6 6 7 6 7 5 5 7 5 4 5 4 4 5 7 6 3 2 2 2 2 3 3 3 4 4 4 5 5 5 5 5 5
5 6 6 6 5 5 6 6 6 5 6 6 6 6 5 5 5 5 5 6 5 5 4 5 6 6 5 2 2 2 2 2 2 3 3 3 4 4 4 4 5 5 5 6
6 6 6 6 5 5 6 6 6 6 6 5 7 7 5 4 4 6 5 4 3 4 3 4 5 5 3 2 2 1 1 1 2 2 3 3 4 4 4 4 5 5 5 5
5 5 6 6 5 5 4 3 3 4 4 5 6 6 6 5 4 4 3 3 2 2 2 2 2 3 2 2 1 0 0 1 2 2 3 3 4 4 4 4 6 5 5 5
6 5 4 5 5 4 3 3 3 4 4 4 6 6 6 5 5 4 3 2 1 1 1 1 1 2 2 1 1 1 1 1 1 2 2 3 3 3 4 5 4 4 4 4
Wind_Direction
233 244 231 243 242 185 188 190 188 227 226 241 223 210 204 182 168 171 196 217 227 238 255 271 278 280 278 282 287 288 290 288 283 285 286 287 288 287 287 285 285 281 282 281
286 281 257 255 256 209 200 192 209 235 253 246 203 155 169 178 179 198 221 233 243 251 258 261 262 268 278 281 283 285 284 282 285 289 292 291 290 290 290 288 286 284 281 281
259 304 3 280 248 206 203 198 177 204 234 182 175 192 195 194 196 210 225 235 242 248 248 251 254 257 264 270 282 287 284 285 288 290 292 291 293 295 291 288 285 286 284 281
158 45 250 251 261 201 192 228 209 222 225 195 202 201 205 194 197 216 227 233 239 241 245 248 249 256 265 275 283 286 287 288 290 292 293 293 293 291 288 285 284 283 282 282
129 176 279 291 240 166 163 253 216 205 207 165 112 69 300 222 203 212 219 221 226 229 228 240 255 261 272 281 287 289 287 288 291 292 294 295 294 291 289 288 289 285 283 282
135 160 232 252 235 156 107 281 229 187 184 159 127 148 255 228 202 216 221 219 224 227 223 243 256 260 267 279 286 283 283 287 291 291 289 289 288 288 287 286 286 290 288 283
158 200 255 251 168 129 164 242 214 184 180 167 181 201 223 199 195 205 211 220 219 216 225 242 253 251 264 277 275 274 282 289 293 291 288 285 284 284 288 290 292 292 292 290
145 184 258 221 147 180 213 221 183 183 182 185 207 220 222 205 204 206 213 222 213 214 238 253 248 234 260 269 269 280 288 293 295 294 293 295 292 292 291 290 294 296 297 300
187 213 241 218 210 229 188 197 198 189 193 191 200 216 213 211 211 214 217 218 210 210 237 258 247 222 247 263 276 287 293 294 296 300 298 294 291 295 298 295 291 295 296 297
251 270 264 256 246 239 208 211 207 190 184 179 196 208 206 208 213 217 218 215 206 204 229 251 254 242 241 262 277 287 292 297 299 303 304 305 298 290 290 293 294 294 294 292
269 281 305 302 254 234 216 210 201 191 185 188 191 199 199 205 212 213 213 211 201 209 227 245 254 256 257 260 272 284 291 295 299 299 300 305 304 293 286 276 267 273 281 278
237 245 224 263 273 234 205 211 202 190 197 199 191 196 195 205 208 205 210 205 207 219 231 244 249 257 264 261 259 274 290 298 299 302 305 306 309 310 291 275 280 270 258 257
250 269 239 262 285 250 222 223 206 196 198 198 198 192 190 196 200 202 209 209 215 222 230 238 246 256 262 261 263 269 278 289 294 298 303 307 309 310 313 315 304 289 279 275
282 282 288 295 289 285 249 235 200 196 196 176 173 169 169 181 192 205 216 218 217 222 233 239 246 255 258 259 267 275 282 288 292 290 295 297 299 299 297 303 313 313 305 292
349 359 300 330 354 3 13 59 82 79 119 152 151 163 177 191 208 220 224 214 208 225 240 242 248 256 255 254 267 279 287 290 292 292 293 293 294 296 297 298 299 302 307 310
348 23 27 25 18 17 25 35 46 285 214 188 182 200 204 206 216 228 222 194 197 226 237 238 247 252 246 248 268 279 284 295 303 299 301 303 302 300 302 304 306 307 307 306
36 22 13 14 12 14 18 14 3 345 335 260 227 215 200 201 225 241 237 220 217 230 234 232 243 248 241 244 258 273 285 297 306 305 301 302 302 300 300 299 301 304 303 297
45 35 26 20 12 8 8 12 13 11 353 309 278 218 213 217 230 241 243 232 232 249 247 237 235 236 240 246 255 263 275 284 290 294 300 302 303 301 299 299 302 305 308 308
28 26 23 23 17 12 6 4 1 356 349 344 309 262 251 247 245 250 245 223 230 248 253 234 226 225 237 250 261 259 271 283 292 295 299 305 307 306 306 308 310 311 310 310
19 16 14 11 8 6 359 352 347 348 345 338 320 302 288 276 268 262 244 237 237 234 225 210 210 220 233 248 262 256 266 278 288 298 305 309 309 309 311 313 314 316 316 313
3 1 0 357 351 348 348 347 346 337 329 323 307 288 282 284 281 261 248 259 258 229 215 209 206 217 221 230 250 251 262 274 285 295 304 310 311 312 315 318 319 321 320 319
344 344 341 339 339 334 330 330 329 325 325 323 316 308 301 295 289 271 250 250 260 219 206 205 208 217 217 218 223 241 259 275 288 296 303 310 310 312 318 323 323 325 325 325
322 320 321 322 318 308 312 316 319 317 311 308 307 305 296 288 281 271 280 271 257 220 207 208 208 211 208 200 211 235 255 278 295 304 309 311 310 311 316 321 324 329 333 334
314 312 308 307 312 317 314 309 312 308 303 299 295 294 293 298 299 281 273 280 260 217 207 202 197 196 188 189 206 227 251 280 299 309 313 314 314 317 321 325 329 332 338 341
299 299 299 308 310 298 287 295 306 310 316 314 311 310 302 277 277 296 301 289 251 204 203 189 182 181 177 184 205 224 254 290 309 314 318 321 321 321 325 329 332 335 343 347
291 290 283 276 270 273 278 284 289 294 301 308 311 312 315 312 305 308 307 294 243 198 187 166 158 164 169 173 183 219 290 314 325 330 329 326 327 328 330 332 338 341 346 350
291 288 287 291 288 277 272 267 271 284 289 291 296 302 308 311 313 317 313 304 267 192 147 126 126 135 137 133 116 76 14 343 343 341 338 336 334 332 332 335 337 342 348 353